Location: Unspecified
(51.7544°N, 0.0000°E)
Time: 23:52:41
(UTC+00:00)

ZHUHAI-1 03C - Visible Passes

Search period start: 04 April 2026 00:00
Search period end: 14 April 2026 00:00
Orbit: 337 x 350 km, 97.6° (Epoch: 29 March)

Date Brightness Start Highest point End Pass type
(mag) Time Alt. Az. Time Alt. Az. Time Alt. Az.
4 Apr ? 03:39:51 16° SSE 03:41:53 78° ENE 03:44:38 10° NNW visible
5 Apr ? 02:32:14 10° ENE 02:32:37 10° ENE 02:33:00 10° NE visible
5 Apr ? 04:00:32 14° S 04:02:41 49° WSW 04:05:22 10° NNW visible
6 Apr ? 02:51:04 10° ESE 02:52:52 17° ENE 02:54:43 10° NNE visible
6 Apr ? 04:20:50 10° SSW 04:23:10 25° W 04:25:31 10° NW visible
7 Apr ? 03:10:28 10° SE 03:12:49 27° ENE 03:15:12 10° N visible
7 Apr ? 04:41:41 10° SW 04:43:19 15° W 04:44:58 10° NW visible
8 Apr ? 03:29:49 10° SSE 03:32:26 51° ENE 03:35:04 10° N visible
9 Apr ? 03:49:03 10° SSE 03:51:43 80° WSW 03:54:26 10° NNW visible
10 Apr ? 02:39:39 10° E 02:40:38 12° ENE 02:41:39 10° NE visible
10 Apr ? 04:08:09 10° S 04:10:40 40° W 04:13:15 10° NNW visible
11 Apr ? 02:57:09 10° ESE 02:59:04 18° ENE 03:01:01 10° NNE visible
11 Apr ? 04:27:07 10° SSW 04:29:18 22° W 04:31:30 10° NW visible
12 Apr ? 03:14:49 10° SE 03:17:10 29° ENE 03:19:34 10° N visible
13 Apr ? 03:32:21 10° SSE 03:34:56 51° ENE 03:37:34 10° N visible
